Oakland, CA

4:24 AM PDT on April 24, 2018 (GMT -0700)
Metro Oakland International

Weather History for KOAK - February, 2015

Change the Weather History Date:

Monday, February 16, 2015

  Actual Average Record
Temperature  
Mean Temperature 59 °F 52 °F  
Max Temperature 71 °F 60 °F 76 °F (2016)
Min Temperature 46 °F 44 °F 34 °F (2006)
Degree Days  
Heating Degree Days 6 13  
Month to date heating degree days 131 216  
Since 1 July heating degree days 1193 1875  
Cooling Degree Days 0 0  
Month to date cooling degree days 0 0  
Year to date cooling degree days 0 0  
Growing Degree Days 8 (Base 50)    
Moisture  
Dew Point 49 °F    
Average Humidity 73    
Maximum Humidity 93    
Minimum Humidity 53    
Precipitation  
Precipitation 0.00 in 0.15 in 0.95 in (1980)
Month to date precipitation 1.93 2.05  
Year to date precipitation 1.93 6.04  
Sea Level Pressure  
Sea Level Pressure 30.00 in    
Wind  
Wind Speed 6 mph (NW)    
Max Wind Speed 17 mph    
Max Gust Speed 20 mph    
Visibility 9 miles    
Events      
T = Trace of Precipitation, MM = Missing Value Source: NWS Daily Summary

Daily Weather History Graph

Daily Weather History Graph

Search for Another Location

Airport or City:

Astronomy

Feb. 16, 2015 Rise Set
Actual Time 6:57 AM PST 5:48 PM PST
Civil Twilight 6:30 AM PST 6:15 PM PST
Nautical Twilight 5:59 AM PST 6:46 PM PST
Astronomical Twilight 5:29 AM PST 7:16 PM PST
Moon 4:54 AM PST (2/16) 3:35 PM PST (2/16)
Length of Visible Light 11h 45m
Length of Day
10h 51m
Waning Crescent, 7% of the Moon is Illuminated
Feb 16
Waning Crescent
Feb 18
New
Feb 25
First Quarter
Mar 5
Full
Mar 13
Last Quarter

Hourly Weather History & Observations

Time (PST) Temp. Dew Point Humidity Pressure Visibility Wind Dir Wind Speed Gust Speed Precip Events Conditions
12:53 AM 50.0 °F 45.0 °F 83% 30.00 in 10.0 mi ENE 3.5 mph - N/A   Clear
1:53 AM 52.0 °F 44.1 °F 74% 30.00 in 10.0 mi Calm Calm - N/A   Clear
2:53 AM 48.9 °F 44.1 °F 83% 30.00 in 10.0 mi Calm Calm - N/A   Clear
3:53 AM 50.0 °F 43.0 °F 77% 29.98 in 10.0 mi NE 3.5 mph - N/A   Clear
4:53 AM 48.9 °F 43.0 °F 80% 29.99 in 10.0 mi Calm Calm - N/A   Clear
5:53 AM 46.9 °F 42.1 °F 83% 29.99 in 10.0 mi NE 3.5 mph - N/A   Clear
6:53 AM 48.0 °F 43.0 °F 83% 30.00 in 10.0 mi Calm Calm - N/A   Partly Cloudy
7:53 AM 51.1 °F 46.0 °F 83% 30.01 in 10.0 mi Calm Calm - N/A   Partly Cloudy
8:53 AM 57.9 °F 48.0 °F 70% 30.02 in 10.0 mi Calm Calm - N/A   Partly Cloudy
9:53 AM 62.1 °F 48.0 °F 60% 30.02 in 10.0 mi Calm Calm - N/A   Partly Cloudy
10:53 AM 62.1 °F 51.1 °F 67% 30.02 in 10.0 mi West 8.1 mph - N/A   Partly Cloudy
11:53 AM 64.9 °F 48.0 °F 54% 30.01 in 10.0 mi WNW 9.2 mph - N/A   Partly Cloudy
12:53 PM 68.0 °F 51.1 °F 55% 29.99 in 10.0 mi WNW 11.5 mph - N/A   Partly Cloudy
1:53 PM 70.0 °F 52.0 °F 53% 29.97 in 10.0 mi WNW 10.4 mph - N/A   Partly Cloudy
2:53 PM 68.0 °F 54.0 °F 61% 29.96 in 10.0 mi West 10.4 mph - N/A   Partly Cloudy
3:53 PM 64.9 °F 54.0 °F 68% 29.96 in 10.0 mi WNW 11.5 mph - N/A   Partly Cloudy
4:53 PM 60.1 °F 53.1 °F 78% 29.97 in 9.0 mi WNW 15.0 mph - N/A   Partly Cloudy
5:53 PM 57.0 °F 52.0 °F 83% 29.99 in 7.0 mi WNW 12.7 mph - N/A   Mostly Cloudy
6:53 PM 55.0 °F 52.0 °F 89% 30.00 in 7.0 mi WNW 12.7 mph - N/A   Mostly Cloudy
7:26 PM 55.4 °F 51.8 °F 88% 30.01 in 7.0 mi WNW 9.2 mph - N/A   Mostly Cloudy
7:53 PM 55.4 °F 51.8 °F 88% 30.02 in 7.0 mi NW 8.1 mph - N/A   Mostly Cloudy
8:53 PM 54.0 °F 51.1 °F 90% 30.04 in 8.0 mi NW 8.1 mph - N/A   Overcast
9:53 PM 55.0 °F 51.1 °F 86% 30.04 in 7.0 mi NW 6.9 mph - N/A   Overcast
10:53 PM 54.0 °F 51.1 °F 90% 30.04 in 7.0 mi NW 5.8 mph - N/A   Overcast
11:53 PM 54.0 °F 51.1 °F 90% 30.04 in 6.0 mi NW 5.8 mph - N/A   Overcast